DW8847 Weather Reports


time (UTC)temp
F
wind
direction
speed
knots
gust
knots
rain 1hr
in
rain 24hr
in
rain mn
in
humidity
%
barometer
mb
20260507145041 66 5 0.0 3.5 0.00 0.23 0.00 73 1012.1
20260507144548 66 13 0.0 4.3 0.00 0.23 0.00 71 1011.5
20260507144041 67 137 0.0 4.3 0.00 0.23 0.00 69 1011.1
20260507143538 67 196 0.9 5.2 0.00 0.23 0.00 68 1010.9
20260507143039 67 355 0.9 5.2 0.00 0.23 0.00 67 1010.8
20260507142538 67 319 0.0 3.5 0.00 0.23 0.00 65 1010.8
20260507142044 67 355 0.9 6.1 0.00 0.23 0.00 63 1011.0
20260507141537 67 217 1.7 8.7 0.00 0.23 0.00 64 1011.1
20260507141038 68 216 1.7 8.7 0.00 0.23 0.00 66 1011.1
20260507140538 68 183 2.6 8.7 0.00 0.23 0.00 65 1011.1
20260507140040 68 236 2.6 7.0 0.00 0.23 0.00 63 1011.1
20260507135538 69 188 1.7 8.7 0.00 0.25 0.00 60 1011.1
20260507135037 70 262 2.6 8.7 0.00 0.25 0.00 59 1011.2
20260507134537 70 290 1.7 7.8 0.00 0.25 0.00 61 1011.2
20260507134037 70 170 2.6 12.2 0.00 0.25 0.00 60 1011.1
20260507133537 69 232 4.3 12.2 0.00 0.25 0.00 61 1011.1
20260507133038 70 153 1.7 7.0 0.00 0.25 0.00 60 1011.0
20260507132536 71 194 4.3 7.8 0.00 0.25 0.00 60 1011.1
20260507132036 70 218 1.7 7.0 0.00 0.25 0.00 60 1011.2
20260507131537 70 230 1.7 6.1 0.00 0.25 0.00 62 1011.3
20260507131036 69 219 2.6 7.8 0.00 0.25 0.00 61 1011.4
20260507130535 70 213 2.6 7.8 0.00 0.25 0.00 64 1011.3
20260507130040 71 220 1.7 7.0 0.00 0.25 0.00 58 1011.3
20260507125535 71 233 2.6 7.0 0.00 0.35 0.00 58 1011.3
20260507125036 71 205 1.7 7.0 0.00 0.35 0.00 56 1011.2
20260507124537 71 188 4.3 6.1 0.00 0.35 0.00 53 1011.3
20260507124035 70 115 0.9 5.2 0.00 0.35 0.00 54 1011.2
20260507123535 69 162 1.7 5.2 0.00 0.35 0.00 58 1011.3
20260507123041 69 188 0.9 4.3 0.00 0.35 0.00 56 1011.4
20260507122534 69 205 0.9 7.0 0.00 0.35 0.00 57 1011.4
20260507122037 69 237 0.9 7.0 0.00 0.35 0.00 55 1011.4
20260507121534 70 169 0.9 2.6 0.00 0.35 0.00 58 1011.5
20260507121032 69 222 0.9 2.6 0.00 0.35 0.00 56 1011.5
20260507120535 69 182 0.0 2.6 0.00 0.35 0.00 56 1011.6
20260507120033 70 160 0.0 5.2 0.00 0.35 0.00 57 1011.6
20260507115533 70 251 0.9 5.2 0.00 0.36 0.00 58 1011.5
20260507115033 69 165 1.7 6.1 0.00 0.36 0.00 62 1011.7
20260507114532 70 195 2.6 6.1 0.00 0.36 0.00 59 1011.6
20260507114034 71 180 2.6 6.1 0.00 0.36 0.00 58 1011.7
20260507113532 72 59 0.9 4.3 0.00 0.36 0.00 60 1011.5
20260507113031 71 14 0.0 4.3 0.00 0.36 0.00 55 1011.6
20260507112533 70 99 0.0 6.1 0.00 0.36 0.00 56 1011.8
20260507112030 69 238 0.9 6.1 0.00 0.36 0.00 61 1011.8
20260507111536 70 198 0.9 3.5 0.00 0.36 0.00 60 1011.8
20260507111029 69 59 0.9 3.5 0.00 0.36 0.00 60 1011.9
20260507110529 71 155 0.9 4.3 0.00 0.36 0.00 58 1012.0
20260507110032 71 107 0.9 4.3 0.00 0.36 0.00 60 1012.0
20260507105530 70 134 0.0 1.7 0.00 0.39 0.00 59 1011.9
20260507105028 70 149 0.0 3.5 0.00 0.39 0.00 57 1012.0
20260507104528 70 235 0.9 4.3 0.00 0.39 0.00 57 1012.1
20260507104028 70 191 0.9 4.3 0.00 0.39 0.00 56 1012.1
20260507103526 70 146 0.0 1.7 0.00 0.39 0.00 61 1012.2
20260507103027 69 92 0.0 4.3 0.00 0.39 0.00 64 1012.3
20260507102526 69 281 0.0 4.3 0.00 0.39 0.00 67 1012.4
20260507102026 69 205 0.9 4.3 0.00 0.39 0.00 70 1012.3
20260507101525 70 73 0.9 2.6 0.00 0.39 0.00 63 1012.3
20260507101027 70 182 0.0 5.2 0.00 0.39 0.00 63 1012.3
20260507100524 69 76 1.7 5.2 0.00 0.39 0.00 68 1012.4
20260507100024 68 180 0.0 5.2 0.00 0.39 0.00 69 1012.4
20260507095524 70 194 0.9 5.2 0.00 0.43 0.00 63 1012.3
20260507095024 70 190 0.0 4.3 0.00 0.43 0.00 66 1012.3
20260507094524 68 167 0.9 4.3 0.00 0.43 0.00 69 1012.3
20260507094021 68 118 0.0 3.5 0.00 0.43 0.00 67 1012.2
20260507093521 68 118 0.9 3.5 0.00 0.43 0.00 69 1012.3
20260507093022 67 122 0.0 1.7 0.00 0.43 0.00 69 1012.2
20260507092521 67 122 0.0 2.6 0.00 0.43 0.00 68 1012.2
20260507092021 67 132 0.0 2.6 0.00 0.43 0.00 70 1012.2
20260507091521 67 67 0.9 3.5 0.00 0.43 0.00 73 1012.2
20260507091021 68 92 0.0 4.3 0.00 0.43 0.00 69 1012.2
20260507090522 69 78 0.0 3.5 0.00 0.43 0.00 69 1012.3
20260507090019 68 46 0.0 3.5 0.00 0.43 0.00 68 1012.3
20260507085519 67 53 0.9 2.6 0.00 0.43 0.00 67 1012.2
20260507085018 68 35 0.0 3.5 0.00 0.43 0.00 69 1012.3
20260507084518 68 83 0.9 4.3 0.00 0.43 0.00 69 1012.2
20260507084023 67 62 1.7 4.3 0.00 0.43 0.00 71 1012.3
20260507083515 66 30 0.0 3.5 0.00 0.43 0.00 71 1012.2
20260507083020 66 63 0.0 3.5 0.00 0.43 0.00 70 1012.2
20260507082514 66 88 0.9 4.3 0.00 0.43 0.00 74 1012.1
20260507082014 65 84 0.0 1.7 0.00 0.43 0.00 75 1012.1
20260507081522 65 84 0.0 1.7 0.00 0.43 0.00 73 1012.0
20260507081013 66 84 0.0 3.5 0.00 0.43 0.00 72 1012.0
20260507080518 67 76 0.9 3.5 0.00 0.43 0.00 73 1012.1
20260507080016 67 67 0.9 2.6 0.00 0.43 0.00 73 1012.1
20260507075510 67 60 0.0 1.7 0.00 0.43 0.00 74 1012.0
20260507075009 66 59 0.0 1.7 0.00 0.43 0.00 74 1012.0
20260507074508 66 59 0.0 2.6 0.00 0.43 0.00 74 1012.0
20260507074008 65 57 0.9 3.5 0.00 0.43 0.00 75 1012.1
20260507073505 65 53 0.9 4.3 0.00 0.43 0.00 77 1012.0
20260507073005 65 57 0.0 4.3 0.00 0.43 0.00 75 1012.1
20260507072506 65 102 0.9 3.5 0.00 0.43 0.00 77 1012.1
20260507072004 65 38 0.9 3.5 0.00 0.43 0.00 76 1012.0
20260507071501 64 45 0.0 4.3 0.00 0.43 0.00 79 1012.0
20260507071101 64 57 0.9 4.3 0.00 0.43 0.00 79 1012.0
20260507070600 63 67 1.7 4.3 0.00 0.43 0.00 79 1011.9
20260507070059 63 71 1.7 3.5 0.00 0.43 0.00 81 1011.7
20260507065558 63 65 1.7 3.5 0.00 0.44 0.00 82 1011.8
20260507065057 63 57 0.9 3.5 0.00 0.44 0.00 83 1011.8
20260507064613 63 53 0.9 3.5 0.00 0.44 0.00 83 1011.8
20260507064056 62 19 1.7 4.3 0.00 0.44 0.00 84 1011.8
20260507063555 62 48 1.7 4.3 0.00 0.44 0.00 84 1011.8
20260507063056 62 59 0.9 3.5 0.00 0.44 0.00 86 1011.7
20260507062552 61 38 0.9 4.3 0.00 0.44 0.00 86 1011.7
20260507062051 61 40 1.7 4.3 0.00 0.44 0.00 87 1011.7
20260507061550 60 22 2.6 4.3 0.00 0.44 0.00 88 1011.6
20260507061048 60 37 1.7 5.2 0.00 0.44 0.00 90 1011.5
20260507060548 59 26 1.7 5.2 0.00 0.44 0.00 90 1011.5
20260507060052 59 33 2.6 4.3 0.00 0.44 0.00 90 1011.5
20260507055547 59 30 0.9 4.3 0.00 0.45 0.00 90 1011.5
20260507055046 58 36 0.9 4.3 0.00 0.45 0.00 90 1011.5
20260507054548 59 34 1.7 4.3 0.00 0.45 0.00 89 1011.4
20260507054045 59 59 1.7 4.3 0.00 0.45 0.00 89 1011.3
20260507053544 59 44 1.7 3.5 0.00 0.45 0.00 90 1011.2
20260507053045 59 33 0.9 2.6 0.00 0.45 0.00 90 1011.2
20260507052545 59 40 1.7 4.3 0.00 0.45 0.00 90 1011.1
20260507052041 58 53 0.9 4.3 0.00 0.45 0.00 91 1011.1
20260507051540 58 28 1.7 3.5 0.00 0.45 0.00 91 1011.0
20260507051038 58 45 0.9 2.6 0.00 0.45 0.00 91 1010.9
20260507050538 58 46 0.9 2.6 0.00 0.45 0.00 91 1010.9
20260507050040 58 35 0.0 2.6 0.00 0.45 0.00 92 1010.8
20260507045540 58 35 0.0 2.6 0.00 0.45 0.00 92 1010.8
20260507045036 58 35 0.0 1.7 0.00 0.45 0.00 92 1010.7
20260507044535 58 35 0.0 1.7 0.00 0.45 0.00 92 1010.6
20260507044036 58 35 0.0 1.7 0.00 0.45 0.00 92 1010.5
20260507043538 58 35 0.9 1.7 0.00 0.45 0.00 92 1010.5
20260507043035 58 35 0.0 1.7 0.00 0.45 0.00 92 1010.5
20260507042534 58 35 0.0 2.6 0.00 0.45 0.00 92 1010.6
20260507042034 58 35 0.9 2.6 0.00 0.45 0.00 92 1010.5
20260507041547 57 44 0.9 2.6 0.00 0.45 0.00 92 1010.4
20260507041035 57 62 0.0 1.7 0.00 0.45 0.00 92 1010.4
20260507040534 57 62 0.0 1.7 0.00 0.45 0.00 92 1010.4
20260507040032 57 62 0.9 1.7 0.00 0.45 0.00 92 1010.3
20260507035531 57 62 0.0 1.7 0.00 0.45 0.00 92 1010.3
20260507035031 57 62 0.0 1.7 0.00 0.45 0.00 92 1010.3
20260507034531 57 62 0.0 0.0 0.00 0.45 0.00 92 1010.4
20260507034031 57 62 0.0 0.0 0.00 0.45 0.00 92 1010.4
20260507033533 58 62 0.0 0.0 0.00 0.45 0.00 92 1010.4
20260507033034 58 62 0.0 0.9 0.00 0.45 0.00 92 1010.4
20260507032531 58 62 0.0 1.7 0.00 0.45 0.00 92 1010.4
20260507032030 58 62 0.0 1.7 0.00 0.45 0.00 92 1010.3
20260507031530 58 62 0.0 1.7 0.00 0.45 0.00 92 1010.3
20260507031030 58 62 0.0 1.7 0.00 0.45 0.00 92 1010.4
20260507030530 58 62 0.0 1.7 0.00 0.45 0.00 92 1010.4
20260507030030 58 62 0.0 1.7 0.00 0.45 0.00 92 1010.4
20260507025529 58 62 0.0 1.7 0.00 0.45 0.00 92 1010.4
20260507025029 58 62 0.0 1.7 0.00 0.45 0.00 92 1010.4
20260507024529 58 62 0.0 1.7 0.00 0.45 0.00 92 1010.4
20260507024030 58 62 0.0 0.0 0.00 0.45 0.00 92 1010.4
20260507023529 58 62 0.0 0.0 0.00 0.45 0.00 92 1010.3
20260507023030 58 62 0.0 0.9 0.00 0.45 0.00 92 1010.3
20260507022528 58 62 0.0 0.9 0.00 0.45 0.00 92 1010.3
20260507022029 58 62 0.0 0.0 0.00 0.45 0.00 92 1010.3
20260507021528 58 62 0.0 1.7 0.00 0.45 0.00 92 1010.3
20260507021031 58 62 0.0 1.7 0.00 0.45 0.00 92 1010.3
20260507020528 58 62 0.0 1.7 0.00 0.45 0.00 92 1010.2
20260507020029 58 62 0.0 1.7 0.00 0.45 0.00 92 1010.3
20260507015527 57 62 0.0 1.7 0.00 0.45 0.00 92 1010.2
20260507015031 57 62 0.0 0.9 0.00 0.45 0.00 91 1010.2
20260507014546 58 62 0.0 0.0 0.00 0.45 0.00 91 1010.3
20260507014031 58 62 0.0 0.9 0.00 0.45 0.00 91 1010.3
20260507013527 58 62 0.0 0.9 0.00 0.45 0.00 92 1010.2
20260507013040 58 62 0.0 0.0 0.00 0.45 0.00 92 1010.2
20260507012528 58 62 0.0 1.7 0.00 0.45 0.00 92 1010.2
20260507012030 58 62 0.0 1.7 0.00 0.45 0.00 92 1010.3
20260507011535 58 62 0.0 1.7 0.00 0.45 0.00 92 1010.2
20260507011025 58 62 0.0 1.7 0.00 0.45 0.00 92 1010.3
20260507010525 58 62 0.0 0.0 0.00 0.45 0.00 92 1010.3
20260507010029 58 62 0.0 0.0 0.00 0.45 0.00 92 1010.4
20260507005524 58 62 0.0 0.0 0.00 0.45 0.00 92 1010.3
20260507005024 58 62 0.0 0.0 0.00 0.45 0.00 92 1010.4
20260507004524 58 62 0.0 0.0 0.00 0.45 0.00 92 1010.3
20260507004025 58 62 0.0 0.0 0.00 0.45 0.00 92 1010.3
20260507003524 58 62 0.0 0.0 0.00 0.45 0.00 92 1010.3
20260507003024 58 62 0.0 0.0 0.00 0.45 0.00 92 1010.4
20260507002523 58 62 0.0 0.0 0.00 0.45 0.00 92 1010.4
20260507002023 58 62 0.0 0.0 0.00 0.45 0.00 92 1010.3
20260507001521 58 62 0.0 0.0 0.00 0.45 0.00 92 1010.3
20260507001022 57 62 0.0 0.0 0.00 0.45 0.00 91 1010.4
20260507000526 57 62 0.0 0.0 0.00 0.45 0.00 91 1010.4
20260507000028 57 62 0.0 0.0 0.00 0.45 0.00 91 1010.4
20260506235522 57 62 0.0 0.0 0.00 0.45 0.00 91 1010.5
20260506235021 57 62 0.0 1.7 0.00 0.45 0.00 91 1010.4
20260506234521 57 62 0.0 1.7 0.00 0.45 0.00 91 1010.4
20260506234022 57 62 0.0 0.0 0.00 0.45 0.00 91 1010.4
20260506233520 57 62 0.0 1.7 0.00 0.45 0.00 90 1010.4
20260506233023 57 62 0.0 1.7 0.00 0.45 0.00 90 1010.5
20260506232522 57 62 0.0 1.7 0.00 0.45 0.00 90 1010.5
20260506232019 57 62 0.0 0.0 0.00 0.45 0.00 90 1010.5
20260506231518 57 62 0.0 0.9 0.00 0.45 0.00 90 1010.6
20260506231018 57 62 0.0 1.7 0.00 0.45 0.00 90 1010.5
20260506230518 57 62 0.0 1.7 0.00 0.45 0.00 90 1010.4
20260506230017 57 62 0.0 2.6 0.00 0.45 0.00 90 1010.5
20260506225521 57 62 0.0 2.6 0.00 0.45 0.00 90 1010.6
20260506225017 57 62 0.0 2.6 0.00 0.45 0.00 90 1010.6
20260506224519 57 62 0.9 2.6 0.00 0.45 0.00 90 1010.6
20260506224016 57 61 0.0 1.7 0.00 0.45 0.00 90 1010.6
20260506223517 58 62 0.0 1.7 0.00 0.45 0.00 90 1010.6
20260506223016 58 61 0.0 1.7 0.00 0.45 0.00 90 1010.5
20260506222517 58 65 0.0 2.6 0.00 0.45 0.00 90 1010.5
20260506222014 58 65 0.9 2.6 0.00 0.45 0.00 90 1010.5
20260506221514 58 65 0.9 2.6 0.00 0.45 0.00 90 1010.5
20260506221016 58 65 0.0 1.7 0.00 0.45 0.00 90 1010.4
20260506220514 58 65 0.0 0.9 0.00 0.45 0.00 90 1010.4
20260506220012 58 65 0.0 1.7 0.00 0.45 0.00 90 1010.4
20260506215517 58 65 0.0 3.5 0.00 0.45 0.45 90 1010.4
20260506215012 58 65 0.9 3.5 0.00 0.45 0.45 90 1010.4
20260506214512 58 74 0.0 1.7 0.00 0.45 0.45 90 1010.5
20260506214011 58 74 0.0 1.7 0.00 0.45 0.45 90 1010.5
20260506213511 58 74 0.0 1.7 0.00 0.45 0.45 90 1010.5
20260506213014 58 74 0.0 1.7 0.00 0.45 0.45 91 1010.5
20260506212512 58 109 0.0 1.7 0.00 0.45 0.45 91 1010.5
20260506212012 58 111 0.0 0.9 0.00 0.45 0.45 91 1010.5
20260506211510 58 111 0.0 1.7 0.00 0.45 0.45 91 1010.5
20260506211011 59 111 0.0 1.7 0.00 0.45 0.45 91 1010.6
20260506210511 59 111 0.0 1.7 0.00 0.45 0.45 91 1010.6
20260506210014 59 69 0.0 0.9 0.00 0.45 0.45 91 1010.6
20260506205511 59 69 0.0 1.7 0.00 0.46 0.45 91 1010.6
20260506205010 59 69 0.0 2.6 0.00 0.46 0.45 91 1010.6
20260506204510 59 72 0.0 2.6 0.00 0.46 0.45 91 1010.6
20260506204010 59 192 0.0 1.7 0.00 0.46 0.45 91 1010.6
20260506203510 59 196 0.0 1.7 0.00 0.46 0.45 91 1010.6
20260506203010 59 196 0.0 0.0 0.00 0.46 0.45 91 1010.5
20260506202510 59 196 0.0 0.0 0.00 0.46 0.45 91 1010.5
20260506202013 60 196 0.0 0.0 0.00 0.46 0.45 91 1010.4
20260506201509 60 196 0.0 1.7 0.00 0.46 0.45 91 1010.4
20260506201010 60 196 0.0 1.7 0.00 0.46 0.45 91 1010.4
20260506200509 60 196 0.0 1.7 0.00 0.46 0.45 91 1010.3
20260506200009 60 196 0.0 1.7 0.00 0.46 0.45 91 1010.4
20260506195509 60 196 0.0 0.0 0.00 0.51 0.45 91 1010.3
20260506195009 60 196 0.0 0.0 0.00 0.51 0.45 91 1010.3
20260506194511 60 196 0.0 0.0 0.00 0.51 0.45 91 1010.2
20260506194009 60 196 0.0 0.0 0.00 0.51 0.45 91 1010.1
20260506193509 60 196 0.0 0.0 0.00 0.51 0.45 91 1010.0
20260506193008 60 196 0.0 0.9 0.00 0.51 0.45 91 1010.0
20260506192509 60 196 0.0 0.9 0.00 0.51 0.45 91 1009.9
20260506192008 60 196 0.0 1.7 0.00 0.51 0.45 91 1009.9
20260506191508 60 196 0.0 1.7 0.00 0.51 0.45 91 1009.9
20260506191008 61 196 0.0 2.6 0.00 0.51 0.45 91 1009.8
20260506190509 61 196 0.0 2.6 0.00 0.51 0.45 91 1009.7
20260506190008 60 196 0.0 2.6 0.00 0.51 0.45 91 1009.6
20260506185508 60 182 0.0 1.7 0.00 0.53 0.45 91 1009.5
20260506185007 61 180 0.0 1.7 0.00 0.53 0.45 91 1009.5
20260506184507 61 180 0.0 1.7 0.00 0.53 0.45 91 1009.4
20260506184007 60 180 0.0 1.7 0.00 0.53 0.45 91 1009.5
20260506183507 61 167 0.0 1.7 0.00 0.53 0.45 91 1009.5
20260506183007 61 167 0.0 1.7 0.00 0.53 0.45 91 1009.5
20260506182507 60 167 0.0 0.0 0.00 0.53 0.45 91 1009.5
20260506182010 60 167 0.0 0.0 0.00 0.53 0.45 91 1009.4
20260506181506 60 167 0.0 0.0 0.00 0.53 0.45 90 1009.4
20260506181007 60 167 0.0 0.0 0.00 0.53 0.45 90 1009.4
20260506180510 60 167 0.0 0.0 0.00 0.53 0.45 90 1009.4
20260506180006 60 167 0.0 0.0 0.00 0.53 0.45 90 1009.5
20260506175507 60 167 0.0 0.0 0.00 0.54 0.45 90 1009.5
20260506175006 60 167 0.0 0.0 0.00 0.54 0.45 90 1009.5
20260506174505 60 167 0.0 1.7 0.00 0.54 0.45 90 1009.4
20260506174008 60 167 0.0 1.7 0.00 0.54 0.45 90 1009.5
20260506173506 60 167 0.0 1.7 0.00 0.54 0.45 90 1009.4
20260506173005 60 167 0.0 1.7 0.00 0.54 0.45 90 1009.4
20260506172505 60 167 0.0 1.7 0.00 0.54 0.45 90 1009.4
20260506172007 60 167 0.0 1.7 0.00 0.54 0.45 90 1009.3
20260506171505 60 167 0.0 1.7 0.00 0.54 0.45 90 1009.2
20260506171007 60 167 0.0 2.6 0.00 0.54 0.45 90 1009.1
20260506170504 60 167 0.0 2.6 0.01 0.54 0.45 90 1009.0
20260506170006 60 215 0.0 2.6 0.02 0.54 0.45 90 1009.1
20260506165504 60 215 0.0 2.6 0.02 0.57 0.45 90 1009.2
20260506165004 60 215 0.0 2.6 0.02 0.57 0.45 90 1009.2
20260506164504 60 215 0.0 3.5 0.03 0.57 0.45 89 1009.2
20260506164004 60 215 0.9 3.5 0.05 0.57 0.45 89 1009.2
20260506163503 60 240 0.0 1.7 0.06 0.57 0.45 89 1009.2
20260506163010 60 267 0.0 2.6 0.07 0.57 0.45 89 1009.3
20260506162503 60 200 0.9 3.5 0.09 0.57 0.45 89 1009.3
20260506162007 60 219 0.0 3.5 0.12 0.57 0.45 89 1009.2
20260506161507 60 180 1.7 5.2 0.15 0.57 0.45 89 1009.2
20260506161003 60 189 0.9 7.0 0.17 0.57 0.45 89 1009.2
20260506160502 60 179 1.7 8.7 0.18 0.56 0.44 88 1009.1
20260506160005 60 218 2.6 8.7 0.19 0.56 0.43 88 1009.2
20260506155504 60 232 3.5 9.6 0.20 0.61 0.43 89 1009.1
20260506155002 60 252 3.5 9.6 0.20 0.61 0.43 89 1009.2
20260506154502 60 163 1.7 7.8 0.20 0.60 0.42 89 1009.1
20260506154002 60 173 2.6 8.7 0.18 0.57 0.40 88 1009.0
20260506153502 61 204 3.5 8.7 0.17 0.56 0.39 89 1009.2
20260506153001 61 184 0.0 3.5 0.16 0.56 0.38 89 1009.1
20260506152501 61 192 0.9 3.5 0.13 0.54 0.35 89 1009.1
20260506152004 61 199 0.0 4.3 0.10 0.50 0.32 88 1009.2
20260506151600 61 213 0.9 4.3 0.08 0.48 0.30 88 1009.3
20260506151100 61 188 0.9 4.3 0.06 0.46 0.28 88 1009.3
20260506150600 62 183 0.9 5.2 0.04 0.44 0.26 87 1009.3
20260506150105 62 223 1.7 6.1 0.02 0.43 0.24 86 1009.3
20260506145602 62 232 0.9 6.1 0.01 0.46 0.23 86 1009.3